Temperature
14 15 15 16 16 15 14 14 13 14 13 14 13 13 13 14 14 14 14 14 14 14 14 14 14 14 14 14 14 14 14 14 14 14 14 14 14 13 13 13 13 13 13 13
15 15 15 15 15 14 14 14 13 14 13 13 13 13 13 13 13 13 13 13 14 14 14 14 14 14 14 14 14 14 13 13 13 13 13 13 13 13 13 13 13 13 13 12
13 13 14 14 14 14 14 14 13 13 13 12 12 12 13 13 13 13 13 13 13 13 13 13 13 13 13 13 13 13 13 13 13 13 13 13 13 13 13 12 12 12 12 12
12 13 14 14 14 14 14 14 13 13 13 12 12 13 13 13 13 13 13 13 13 13 13 13 13 13 13 13 13 13 13 13 12 12 12 12 12 12 12 12 12 12 12 12
11 12 13 13 14 13 13 13 13 12 12 12 12 12 12 13 13 13 13 13 13 13 13 13 13 13 13 13 12 12 12 12 12 12 12 12 12 12 12 12 12 11 11 11
10 12 13 14 14 14 14 13 13 12 11 11 11 10 11 13 13 13 13 12 12 12 12 12 12 12 12 12 12 12 12 12 12 11 11 11 11 11 11 11 11 11 11 11
10 11 11 12 13 14 13 13 13 13 12 11 11 12 13 13 13 12 12 12 12 12 12 12 12 12 12 12 12 11 11 11 11 11 11 11 11 11 11 10 10 11 11 11
9 11 12 13 12 12 13 14 14 13 13 13 13 13 13 13 12 12 12 12 12 12 11 12 11 11 11 11 11 11 11 11 11 11 11 10 10 10 10 10 10 10 10 10
10 11 12 12 13 14 14 14 14 14 14 13 13 13 12 12 12 12 12 11 11 11 11 11 11 11 11 11 11 10 10 10 10 10 10 10 10 10 10 9 9 9 9 9
9 10 11 12 13 13 14 14 14 14 13 13 13 13 12 12 12 12 11 11 11 11 11 11 10 10 10 10 10 10 10 10 10 10 10 9 9 9 9 9 9 9 9 9
8 9 11 12 13 13 13 13 13 13 13 13 13 12 12 12 12 11 11 11 11 10 10 10 10 10 10 10 10 10 10 9 9 9 9 9 9 9 9 9 9 9 9 8
9 10 10 12 13 13 13 13 13 13 12 12 12 12 12 11 11 11 10 10 10 10 10 10 9 9 9 9 9 9 9 9 9 9 9 9 8 8 8 8 8 8 8 8
12 12 12 12 12 12 12 12 12 12 12 12 12 11 11 11 11 10 10 10 10 9 9 9 9 9 9 9 9 9 8 8 8 8 8 8 8 8 8 8 8 8 8 8
12 12 11 12 12 12 12 12 11 11 11 11 11 11 11 10 10 10 10 9 9 9 9 9 8 8 8 8 8 8 8 8 8 7 7 7 7 7 7 7 7 7 7 7
11 11 11 11 11 11 11 11 11 11 11 11 10 10 10 10 10 9 9 9 9 9 8 8 8 8 8 8 8 8 7 7 7 7 7 7 7 7 7 7 7 7 7 7
11 11 11 11 11 11 11 10 10 10 10 10 10 10 9 9 9 9 9 8 8 8 8 8 8 8 7 7 7 7 7 7 7 7 6 6 6 6 6 6 6 6 6 6
10 10 10 10 10 10 10 10 10 10 10 10 9 9 9 9 8 8 8 8 8 8 7 7 7 7 7 7 7 7 6 6 6 6 6 6 6 6 5 5 5 5 5 6
10 11 10 10 10 10 10 10 10 10 9 9 9 8 8 8 8 8 8 7 7 7 7 7 7 7 7 7 6 6 6 6 6 6 5 5 5 5 5 5 5 5 5 5
10 10 10 10 10 10 10 9 9 9 9 9 8 8 8 8 7 7 7 7 7 7 7 6 6 6 6 6 6 6 6 5 5 5 5 5 5 4 4 4 4 4 4 4
10 10 10 9 9 9 9 9 9 9 8 8 8 8 7 7 7 7 7 7 7 6 6 6 6 6 6 6 5 5 5 5 5 5 4 4 4 4 4 4 4 4 4 4
9 9 9 9 9 9 9 9 8 8 8 8 7 7 7 7 7 6 6 6 6 6 6 5 5 5 5 5 5 5 5 5 5 4 4 4 4 4 4 3 3 3 3 3
9 9 9 9 8 8 8 8 8 8 7 7 7 7 7 6 6 6 6 6 6 5 5 5 5 5 5 5 5 4 4 4 4 4 4 4 3 3 3 3 3 3 3 3
8 8 8 8 8 8 7 7 7 7 7 7 6 6 6 6 6 6 6 5 5 5 5 5 5 4 4 4 4 4 4 4 4 4 4 3 3 3 3 3 3 3 3 2
7 7 7 7 7 7 7 7 6 6 6 6 6 6 6 5 5 5 5 5 5 5 5 4 4 4 4 4 4 4 4 4 4 3 3 3 3 3 3 2 2 2 2 2
7 7 6 6 6 6 6 6 6 6 6 5 5 5 5 5 5 5 5 5 4 4 4 4 4 4 3 3 4 4 4 3 3 3 3 3 3 3 2 2 2 2 2 2
6 6 6 6 6 5 5 5 5 5 5 5 5 5 5 4 4 4 4 4 4 4 4 3 3 3 3 3 3 3 3 3 3 3 3 3 3 2 2 2 2 2 2 2
5 5 5 5 5 5 5 5 5 5 5 5 4 4 4 4 4 4 4 3 3 3 3 3 3 3 3 2 2 2 2 2 2 2 2 2 2 2 2 2 2 1 1 1
Wind_Speed
5 5 3 4 5 4 6 7 7 8 8 8 6 5 4 3 2 1 1 1 1 2 2 2 1 2 2 2 2 2 3 3 3 2 2 1 1 1 1 2 2 3 3 3
2 2 3 4 5 5 5 5 5 4 7 5 4 2 2 2 2 1 2 2 2 2 2 2 2 2 2 2 2 3 3 3 2 2 1 1 1 1 1 1 2 2 3 3
3 3 2 5 6 7 5 5 6 7 8 3 2 4 4 4 3 3 3 2 2 3 3 3 3 3 3 3 2 3 3 2 2 2 2 2 2 1 2 2 2 2 3 3
1 1 5 7 2 4 4 4 5 4 4 4 5 4 2 2 3 3 3 3 3 3 3 3 2 2 1 1 2 3 2 2 1 2 2 2 1 2 2 2 2 2 3 3
3 3 6 6 3 4 4 5 4 4 3 2 0 2 2 2 2 3 3 3 3 3 2 1 1 1 2 1 2 2 2 2 2 2 2 2 2 3 2 2 2 3 3 3
4 4 6 6 3 2 4 5 4 4 4 2 4 1 4 3 2 1 1 1 1 1 1 0 1 1 2 2 1 2 3 3 2 2 2 3 3 3 2 2 3 3 3 3
4 5 7 6 2 3 3 7 3 4 5 5 5 5 4 2 1 1 1 1 1 0 0 0 0 2 2 1 2 3 2 1 1 1 2 2 2 2 2 2 2 2 2 3
5 5 8 3 4 5 6 2 2 4 4 5 3 2 1 1 1 1 1 1 1 1 1 1 1 2 1 1 3 2 1 1 1 1 1 1 1 1 1 2 2 2 2 2
8 7 4 3 5 4 3 3 3 4 4 4 3 2 2 2 2 1 1 0 0 0 1 1 1 1 1 2 2 1 0 1 1 1 1 1 1 1 1 1 1 2 2 3
4 6 5 4 3 2 2 3 3 3 3 4 4 3 3 2 2 1 1 1 0 1 1 2 1 0 1 1 1 0 0 1 1 1 1 1 1 1 1 2 2 2 3 3
4 6 5 4 3 3 1 0 0 1 2 4 4 3 4 3 3 2 2 1 1 1 1 2 1 1 1 1 1 1 1 1 1 1 1 1 1 2 2 3 3 3 3 4
8 7 5 7 5 3 3 3 3 2 2 2 4 4 4 3 3 2 2 1 1 1 2 2 1 1 1 1 1 1 0 1 1 2 1 1 2 3 3 3 4 4 4 4
7 5 6 6 5 4 4 4 3 3 4 4 3 3 4 3 3 2 2 2 3 3 2 2 1 1 2 1 1 1 1 1 1 1 1 2 2 2 3 4 4 4 4 4
7 4 5 6 6 5 4 4 3 2 3 3 3 2 3 2 2 2 3 4 3 2 2 1 1 2 2 1 1 0 1 1 1 1 1 2 2 2 2 3 3 4 4 4
8 7 8 5 4 4 3 2 2 2 2 2 2 3 3 3 3 3 3 2 2 1 1 1 1 2 2 1 1 1 1 1 1 1 1 2 2 2 2 2 3 3 4 4
5 4 4 5 5 5 4 4 4 5 4 4 3 4 4 4 3 2 2 2 2 2 2 2 2 3 2 1 1 1 1 2 1 0 1 1 2 2 2 2 3 3 4 4
3 4 4 4 5 5 5 6 6 6 5 5 5 4 3 3 2 2 2 2 3 3 3 2 3 2 1 1 2 1 1 1 1 1 1 1 2 2 2 2 3 3 4 4
7 7 6 7 6 6 5 5 5 5 5 5 4 4 4 4 4 4 3 2 1 1 2 3 3 2 1 1 2 1 1 1 1 1 2 2 2 2 2 2 3 3 4 4
3 4 4 4 5 5 5 5 5 4 4 4 4 4 5 5 4 4 3 2 2 3 4 3 2 2 2 2 1 1 2 1 1 2 2 3 3 2 2 3 3 3 3 3
2 2 2 2 2 3 4 4 3 3 3 4 4 3 3 4 4 4 3 3 4 4 4 3 2 2 3 3 2 2 2 2 2 2 2 3 3 3 3 3 4 4 3 3
2 1 2 2 2 2 3 3 3 4 3 4 4 5 5 4 4 4 3 3 4 4 3 3 2 3 3 3 3 2 3 3 3 3 3 4 4 4 4 4 4 4 4 4
1 1 2 2 2 2 2 2 3 3 3 3 4 4 4 3 3 3 4 5 5 4 3 3 3 4 4 3 2 3 3 4 4 4 4 4 4 5 5 5 5 5 5 5
2 2 2 2 3 3 2 2 3 3 4 4 5 5 5 5 4 4 4 4 4 4 3 3 5 6 5 3 2 3 4 4 4 5 5 5 5 5 5 6 5 5 5 5
2 2 3 3 2 2 3 4 3 3 3 4 4 5 4 3 3 4 4 5 5 5 4 5 6 6 5 2 3 3 4 5 5 5 5 5 5 5 5 5 5 6 6 6
3 3 3 2 3 4 5 4 3 2 3 3 3 4 3 4 4 4 3 3 4 4 3 5 7 6 3 3 3 4 4 5 5 5 5 5 5 5 5 5 6 6 6 6
3 3 4 4 4 4 3 3 3 3 3 3 3 3 2 2 2 2 2 3 3 4 3 3 3 4 3 3 4 4 4 5 6 5 5 5 5 6 6 6 7 6 6 6
3 3 3 3 4 3 3 3 4 4 4 4 4 3 3 2 2 2 2 2 2 3 3 3 3 3 3 3 4 4 4 4 4 5 5 5 5 5 6 7 6 6 6 6
Wind_Direction
232 236 215 225 229 201 195 199 205 233 231 250 249 246 258 262 276 335 341 334 320 301 282 282 286 284 245 218 192 171 163 179 207 214 211 201 204 208 201 204 219 215 204 213
263 253 242 247 246 221 217 210 222 245 255 252 253 237 237 235 230 254 277 277 289 297 294 273 263 269 250 222 196 159 167 198 212 201 198 210 218 206 201 225 231 218 213 213
254 306 359 268 234 209 211 208 190 219 241 237 247 237 229 224 220 235 250 263 271 276 273 264 254 247 239 216 181 159 177 196 197 200 205 222 230 204 208 223 218 225 233 224
183 67 235 245 243 192 199 235 213 222 235 217 226 236 226 215 218 237 247 255 267 271 276 282 265 247 222 177 161 165 179 205 203 199 217 224 215 226 226 211 205 224 235 233
151 216 268 283 246 182 189 254 223 212 237 248 93 33 314 290 234 225 233 243 250 254 252 265 282 238 159 150 156 167 193 214 223 210 209 214 225 237 229 207 217 226 226 224
149 195 239 252 247 196 130 267 243 191 207 174 117 150 269 273 245 248 266 273 267 281 300 39 333 122 132 153 166 213 230 223 221 214 213 219 230 237 232 221 233 232 241 240
179 220 258 258 250 118 170 249 237 185 187 171 188 215 238 226 218 225 278 300 312 29 53 293 19 117 135 155 245 258 257 242 230 227 232 233 238 231 223 229 236 243 257 267
168 201 250 235 138 180 222 244 195 186 183 184 210 230 200 184 190 195 340 350 19 67 350 343 76 122 136 265 277 287 285 266 260 254 253 261 227 243 223 205 221 248 264 287
194 215 246 223 214 229 191 206 216 195 194 181 196 221 213 207 209 219 215 258 345 100 9 358 41 138 184 274 293 314 351 270 258 252 250 249 221 225 220 206 223 252 256 267
245 263 264 264 262 274 226 224 223 200 185 179 198 206 206 209 216 227 244 233 225 91 30 330 327 249 230 281 305 64 239 281 299 288 280 286 248 227 213 221 237 253 257 265
250 272 300 289 260 245 239 233 197 210 194 189 183 201 207 214 223 226 230 229 197 189 233 279 301 307 304 308 75 64 340 318 320 312 284 286 284 253 240 235 224 232 239 241
226 225 211 251 254 232 213 225 213 198 227 220 194 202 208 215 224 218 217 222 221 235 246 261 270 285 301 312 121 117 352 315 313 308 300 293 295 311 294 273 279 272 261 254
230 234 225 247 256 236 224 229 222 209 209 222 225 203 200 215 221 209 210 224 227 236 243 241 241 277 294 298 142 144 236 286 296 304 306 295 283 280 301 314 312 302 291 282
230 224 244 240 238 236 232 230 223 219 222 210 209 203 194 199 207 212 222 231 231 226 229 226 227 271 278 252 174 190 250 285 300 278 287 293 289 278 270 281 304 309 304 296
241 226 227 236 231 226 220 194 190 216 220 225 208 196 193 199 212 226 232 223 199 191 212 211 234 276 282 218 193 224 246 266 278 289 295 294 297 303 302 294 290 299 311 311
252 242 220 214 218 220 213 203 207 221 218 216 216 217 216 209 208 216 222 196 180 204 225 221 243 265 262 207 192 227 251 277 316 293 297 303 305 306 306 306 307 307 304 305
207 229 221 216 218 220 220 217 212 215 213 208 213 213 203 192 200 224 235 222 203 214 223 223 240 253 234 202 192 217 228 257 304 315 282 276 285 287 288 292 296 298 300 306
218 220 213 204 206 213 221 220 212 210 211 211 201 192 192 197 211 224 228 219 199 261 261 241 229 212 219 213 200 206 202 210 226 254 269 271 278 281 285 288 291 292 303 311
217 212 214 210 208 204 210 216 216 214 210 194 187 199 208 213 219 225 217 198 204 247 264 254 232 210 230 241 216 193 195 210 233 251 258 276 285 287 286 286 285 283 285 292
212 198 196 204 202 200 209 214 205 206 206 192 189 197 215 224 218 213 203 214 228 232 235 229 219 223 232 234 216 191 198 216 230 244 253 255 262 273 277 281 283 283 280 276
232 218 201 205 224 223 214 208 199 208 209 190 190 205 219 230 218 201 197 235 254 238 229 230 224 233 234 233 222 205 213 225 233 241 250 252 254 260 266 272 275 275 273 275
245 230 229 223 224 249 246 210 201 205 201 200 207 208 210 224 225 221 224 230 242 228 220 230 230 241 246 241 219 220 228 233 240 246 249 251 253 257 261 263 265 269 268 265
247 235 235 236 233 238 241 228 215 208 208 211 214 215 216 222 216 210 243 248 237 238 226 229 243 250 254 234 225 230 236 239 243 247 248 250 253 255 260 264 264 265 263 261
263 254 250 246 223 207 236 250 236 220 212 216 219 218 214 223 240 236 235 248 242 242 230 239 247 253 258 237 234 240 246 250 249 248 249 252 254 254 257 261 264 264 264 261
258 259 256 243 237 240 241 242 238 234 223 228 240 240 229 215 221 237 231 232 245 246 245 255 259 263 258 245 243 247 251 255 257 257 249 253 254 255 257 259 260 263 263 259
257 256 254 244 240 243 238 225 230 237 225 230 246 247 243 236 226 229 227 230 233 248 246 249 255 261 255 253 253 253 254 264 272 269 260 257 254 256 260 260 261 261 258 252
265 265 270 275 269 248 233 225 230 236 226 218 228 237 232 227 220 226 231 238 242 243 244 248 245 245 250 254 258 259 260 262 264 265 265 264 262 260 261 263 265 263 256 248
Height
1509 1507 1507 1507 1508 1510 1513 1515 1519 1515 1513 1506 1504 1503 1502 1501 1501 1501 1500 1500 1500 1500 1500 1500 1500 1500 1500 1501 1501 1502 1503 1504 1505 1506 1507 1508 1508 1509 1509 1510 1510 1511 1511 1512
1509 1506 1506 1507 1505 1506 1507 1508 1509 1508 1507 1501 1500 1500 1500 1500 1499 1499 1499 1499 1499 1498 1498 1498 1498 1498 1498 1499 1499 1500 1501 1501 1502 1503 1504 1505 1505 1505 1506 1506 1506 1507 1507 1508
1515 1510 1507 1511 1503 1503 1503 1502 1503 1506 1502 1498 1499 1498 1498 1497 1497 1497 1497 1497 1497 1497 1497 1496 1496 1496 1496 1497 1497 1497 1498 1499 1500 1500 1501 1501 1502 1502 1502 1502 1503 1503 1504 1504
1517 1514 1518 1505 1496 1496 1498 1497 1497 1496 1495 1495 1495 1495 1496 1496 1495 1495 1495 1495 1495 1495 1495 1495 1495 1495 1494 1495 1495 1495 1496 1496 1497 1497 1497 1498 1498 1498 1499 1499 1499 1499 1500 1500
1519 1517 1511 1501 1495 1495 1497 1497 1493 1494 1493 1493 1494 1494 1494 1494 1494 1494 1494 1494 1494 1494 1494 1493 1493 1493 1493 1493 1493 1493 1493 1494 1494 1494 1494 1494 1495 1495 1495 1495 1496 1496 1496 1496
1518 1515 1513 1499 1491 1490 1494 1497 1490 1490 1491 1492 1493 1497 1494 1492 1492 1492 1492 1492 1492 1492 1492 1491 1491 1491 1491 1491 1491 1491 1491 1491 1491 1491 1491 1491 1491 1491 1492 1492 1492 1492 1492 1492
1515 1513 1505 1493 1489 1491 1501 1496 1487 1487 1488 1490 1490 1491 1491 1490 1490 1490 1490 1491 1490 1490 1490 1489 1489 1489 1489 1489 1489 1489 1489 1489 1489 1489 1488 1488 1488 1488 1488 1488 1489 1488 1488 1489
1512 1512 1505 1488 1489 1492 1490 1485 1485 1485 1486 1487 1488 1488 1488 1489 1488 1489 1489 1489 1488 1488 1488 1488 1487 1487 1487 1487 1487 1487 1486 1486 1486 1486 1486 1485 1485 1485 1485 1485 1485 1485 1484 1485
1498 1496 1487 1485 1484 1484 1484 1484 1484 1484 1484 1485 1486 1486 1486 1487 1487 1487 1487 1487 1487 1486 1486 1486 1485 1485 1484 1484 1484 1484 1484 1484 1483 1483 1483 1483 1482 1482 1482 1482 1481 1481 1481 1480
1492 1487 1484 1483 1482 1482 1482 1482 1482 1482 1483 1483 1484 1484 1484 1485 1485 1485 1485 1485 1485 1484 1484 1483 1483 1483 1482 1482 1482 1482 1481 1481 1480 1480 1480 1480 1480 1479 1479 1478 1478 1478 1477 1476
1489 1484 1482 1480 1480 1480 1480 1481 1481 1481 1481 1482 1482 1482 1482 1483 1483 1483 1483 1483 1483 1482 1481 1481 1480 1480 1480 1480 1479 1479 1478 1478 1478 1477 1477 1476 1476 1476 1475 1475 1475 1474 1474 1473
1483 1479 1479 1477 1477 1478 1478 1478 1479 1479 1479 1480 1480 1480 1480 1480 1480 1480 1480 1480 1480 1479 1479 1478 1478 1478 1477 1477 1477 1476 1475 1475 1475 1474 1474 1473 1473 1472 1472 1472 1472 1471 1471 1470
1474 1474 1475 1474 1474 1475 1475 1476 1476 1477 1477 1477 1477 1477 1477 1477 1478 1478 1477 1477 1477 1477 1476 1476 1476 1475 1475 1474 1474 1473 1472 1472 1472 1471 1471 1470 1470 1469 1468 1468 1468 1467 1466 1466
1471 1471 1471 1470 1471 1471 1472 1472 1473 1474 1474 1475 1475 1475 1475 1475 1475 1475 1475 1474 1474 1474 1474 1473 1473 1473 1472 1472 1472 1471 1470 1470 1469 1469 1468 1467 1467 1466 1465 1464 1463 1462 1462 1461
1466 1466 1466 1466 1467 1468 1468 1469 1470 1470 1470 1471 1471 1472 1472 1472 1472 1471 1472 1471 1471 1471 1471 1471 1470 1470 1470 1470 1469 1469 1468 1467 1467 1466 1466 1465 1464 1463 1462 1461 1460 1458 1457 1456
1461 1462 1462 1462 1463 1464 1465 1466 1466 1466 1467 1467 1468 1468 1468 1468 1468 1468 1468 1468 1468 1468 1468 1468 1468 1468 1467 1467 1466 1466 1465 1465 1464 1463 1462 1462 1461 1460 1458 1457 1456 1455 1453 1452
1458 1457 1458 1458 1459 1460 1461 1462 1462 1463 1463 1464 1464 1465 1465 1465 1465 1465 1465 1465 1465 1465 1465 1465 1465 1465 1465 1464 1464 1463 1462 1462 1461 1460 1459 1458 1457 1456 1455 1454 1453 1451 1450 1449
1454 1454 1454 1455 1455 1456 1457 1458 1459 1460 1460 1460 1461 1461 1461 1461 1461 1461 1462 1462 1462 1462 1462 1462 1462 1462 1461 1461 1460 1460 1459 1458 1458 1457 1456 1455 1454 1453 1452 1451 1449 1448 1446 1445
1451 1451 1452 1452 1453 1454 1454 1455 1455 1456 1457 1457 1457 1457 1457 1458 1458 1458 1458 1458 1458 1458 1458 1458 1458 1458 1458 1457 1457 1457 1456 1455 1454 1454 1453 1452 1451 1450 1448 1447 1446 1444 1443 1442
1448 1449 1450 1450 1451 1451 1451 1451 1452 1452 1453 1453 1454 1454 1454 1454 1454 1455 1455 1455 1454 1455 1455 1455 1454 1454 1454 1454 1453 1453 1452 1451 1451 1450 1449 1448 1447 1446 1444 1443 1441 1440 1439 1438
1446 1447 1447 1447 1448 1448 1448 1448 1449 1449 1449 1450 1450 1450 1450 1451 1451 1451 1451 1451 1451 1451 1451 1451 1451 1450 1450 1449 1449 1449 1448 1447 1446 1446 1445 1444 1442 1441 1440 1439 1437 1436 1435 1434
1444 1444 1444 1445 1445 1445 1445 1445 1445 1446 1446 1446 1446 1446 1446 1447 1447 1447 1447 1447 1447 1447 1447 1447 1446 1446 1446 1445 1445 1444 1444 1443 1442 1441 1440 1439 1438 1436 1435 1434 1433 1432 1431 1430
1442 1442 1442 1442 1442 1441 1441 1442 1442 1442 1442 1442 1442 1442 1442 1443 1443 1443 1442 1443 1443 1443 1442 1442 1442 1442 1442 1441 1440 1439 1439 1438 1437 1436 1435 1434 1433 1432 1431 1429 1428 1427 1426 1425
1439 1439 1439 1439 1438 1438 1438 1438 1438 1438 1438 1438 1438 1439 1439 1439 1438 1438 1438 1438 1438 1438 1438 1438 1438 1437 1437 1436 1435 1434 1433 1432 1431 1431 1430 1429 1428 1426 1425 1424 1423 1422 1420 1419
1436 1436 1435 1435 1434 1434 1434 1434 1434 1433 1433 1434 1434 1434 1434 1434 1434 1434 1433 1433 1433 1433 1433 1433 1433 1432 1431 1430 1430 1429 1428 1427 1426 1425 1424 1423 1422 1421 1419 1418 1417 1416 1414 1413
1432 1432 1431 1431 1431 1430 1430 1430 1429 1429 1430 1429 1430 1430 1430 1430 1429 1429 1429 1428 1428 1428 1427 1427 1427 1426 1426 1425 1424 1423 1422 1421 1420 1419 1418 1417 1416 1415 1414 1413 1411 1410 1408 1407
1428 1428 1427 1426 1426 1426 1426 1425 1425 1425 1425 1425 1425 1425 1425 1425 1425 1424 1424 1423 1423 1422 1422 1422 1421 1421 1420 1419 1418 1417 1416 1415 1414 1413 1412 1411 1410 1409 1408 1407 1405 1404 1402 1401